This is the latest recevied weather packets stored in our database for station/object EA1JAV-11. If no packets are shown the sender has not sent any weather packets the latest 10 day(s).
| Time | Temp. | Humidity | Pressure | Rain* | Wind** | Luminosity | Snow |
|---|---|---|---|---|---|---|---|
| 1777950504 | 13.33° C | 49% | 991.6 hPa | - | - | - | - |
| 1777948704 | 13.33° C | 49% | 991.7 hPa | - | - | - | - |
| 1777946904 | 13.33° C | 48% | 991.8 hPa | - | - | - | - |
| 1777945104 | 13.33° C | 48% | 992 hPa | - | - | - | - |
| 1777943304 | 13.89° C | 48% | 992.1 hPa | - | - | - | - |
| 1777941504 | 13.89° C | 48% | 992.3 hPa | - | - | - | - |
| 1777939704 | 13.89° C | 48% | 992.5 hPa | - | - | - | - |
| 1777937904 | 14.44° C | 48% | 992.5 hPa | - | - | - | - |
| 1777936104 | 14.44° C | 49% | 992.5 hPa | - | - | - | - |
| 1777934304 | 14.44° C | 49% | 992.6 hPa | - | - | - | - |
| 1777932504 | 15° C | 49% | 992.7 hPa | - | - | - | - |
| 1777930704 | 15° C | 50% | 992.8 hPa | - | - | - | - |
| 1777928904 | 15° C | 50% | 992.8 hPa | - | - | - | - |
| 1777927104 | 15.56° C | 50% | 992.7 hPa | - | - | - | - |
| 1777925304 | 15.56° C | 50% | 992.2 hPa | - | - | - | - |
| 1777923503 | 16.11° C | 50% | 992 hPa | - | - | - | - |
| 1777921703 | 16.67° C | 49% | 991.7 hPa | - | - | - | - |
| 1777919903 | 17.22° C | 49% | 991.6 hPa | - | - | - | - |
| 1777918103 | 17.22° C | 49% | 991.4 hPa | - | - | - | - |
| 1777916303 | 17.22° C | 48% | 991.3 hPa | - | - | - | - |
| 1777914503 | 17.78° C | 48% | 991.3 hPa | - | - | - | - |
| 1777912703 | 17.22° C | 49% | 991.5 hPa | - | - | - | - |
| 1777910903 | 17.22° C | 49% | 991.3 hPa | - | - | - | - |
| 1777909103 | 17.22° C | 48% | 991.4 hPa | - | - | - | - |
| 1777907303 | 16.67° C | 48% | 991.6 hPa | - | - | - | - |
* Rain since midnight (hover to see other rain measurements)
** Current wind speed in m/s (hover to see current wind gust speed)